This is the latest recevied weather packets stored in our database for station/object CE1RLP-31. If no packets are shown the sender has not sent any weather packets the latest 10 day(s).
| Time | Temp. | Humidity | Pressure | Rain* | Wind** | Luminosity | Snow |
|---|---|---|---|---|---|---|---|
| 1777415847 | 8.89° C | 14% | 1097.9 hPa | - | - | - | - |
| 1777414947 | 10° C | 13% | 1097.9 hPa | - | - | - | - |
| 1777414047 | 10.56° C | 13% | 1097.8 hPa | - | - | - | - |
| 1777413149 | 10.56° C | 13% | 1097.8 hPa | - | - | - | - |
| 1777412249 | 11.67° C | 13% | 1097.9 hPa | - | - | - | - |
| 1777411348 | -5.56° C | 14% | 1079.5 hPa | - | - | - | - |
| 1777410448 | 11.67° C | 13% | 1097.7 hPa | - | - | - | - |
| 1777409548 | 11.11° C | 13% | 1097.8 hPa | - | - | - | - |
| 1777408648 | 11.11° C | 13% | 1097.8 hPa | - | - | - | - |
| 1777407748 | 11.67° C | 13% | 1097.8 hPa | - | - | - | - |
| 1777406848 | 11.67° C | 13% | 1097.7 hPa | - | - | - | - |
| 1777405948 | 12.22° C | 12% | 1097.6 hPa | - | - | - | - |
| 1777405048 | 12.78° C | 12% | 1097.9 hPa | - | - | - | - |
| 1777404148 | 12.78° C | 12% | 1097.8 hPa | - | - | - | - |
| 1777403247 | 13.89° C | 13% | 1097.7 hPa | - | - | - | - |
| 1777402347 | 13.89° C | 13% | 1097.9 hPa | - | - | - | - |
| 1777401447 | 13.89° C | 14% | 1097.9 hPa | - | - | - | - |
| 1777400547 | 14.44° C | 14% | 1097.9 hPa | - | - | - | - |
| 1777399647 | 14.44° C | 13% | 1098.1 hPa | - | - | - | - |
| 1777398747 | 14.44° C | 13% | 1098.9 hPa | - | - | - | - |
| 1777397847 | 15° C | 13% | 1098.2 hPa | - | - | - | - |
| 1777396947 | 15° C | 13% | 1098.1 hPa | - | - | - | - |
| 1777396047 | 14.44° C | 13% | 1098.3 hPa | - | - | - | - |
| 1777395147 | 14.44° C | 11% | 1098.4 hPa | - | - | - | - |
| 1777394247 | 14.44° C | 11% | 1098.4 hPa | - | - | - | - |
* Rain since midnight (hover to see other rain measurements)
** Current wind speed in m/s (hover to see current wind gust speed)